Time,TemperatureF,DewpointF,PressureIn,WindDirection,WindDirectionDegrees,WindSpeedMPH,WindSpeedGustMPH,Humidity,HourlyPrecipIn,Conditions,Clouds,dailyrainin,SoftwareType,DateUTC
2013-05-08 00:00:00,62.4,47.4,29.83,SE,140,0.0,0.0,58,0.00,,,0.00,Wunderground v.1.15,2013-05-08 05:00:00,
2013-05-08 00:10:00,62.1,47.1,29.83,SE,138,0.0,0.0,58,0.00,,,0.00,Wunderground v.1.15,2013-05-08 05:10:00,
2013-05-08 00:15:00,61.6,47.1,29.83,SE,138,0.0,0.0,59,0.00,,,0.00,Wunderground v.1.15,2013-05-08 05:15:00,
2013-05-08 00:25:00,61.2,47.2,29.83,SE,140,0.0,0.0,60,0.00,,,0.00,Wunderground v.1.15,2013-05-08 05:25:00,
2013-05-08 00:30:00,61.3,47.3,29.83,SE,138,0.0,0.0,60,0.00,,,0.00,Wunderground v.1.15,2013-05-08 05:30:00,
2013-05-08 00:40:00,61.3,47.3,29.83,SE,144,0.0,0.0,60,0.00,,,0.00,Wunderground v.1.15,2013-05-08 05:40:00,
2013-05-08 00:50:00,60.9,47.4,29.83,SE,143,0.0,0.0,61,0.00,,,0.00,Wunderground v.1.15,2013-05-08 05:50:00,
2013-05-08 00:55:00,60.7,47.2,29.83,SE,143,0.0,0.0,61,0.00,,,0.00,Wunderground v.1.15,2013-05-08 05:55:00,
2013-05-08 01:05:00,60.1,47.0,29.84,SE,144,0.0,0.0,62,0.00,,,0.00,Wunderground v.1.15,2013-05-08 06:05:00,
2013-05-08 01:10:00,59.9,47.3,29.84,SE,144,0.0,0.0,63,0.00,,,0.00,Wunderground v.1.15,2013-05-08 06:10:00,
2013-05-08 01:20:00,59.8,47.6,29.83,SE,144,0.0,0.0,64,0.00,,,0.00,Wunderground v.1.15,2013-05-08 06:20:00,
2013-05-08 01:30:00,60.2,48.0,29.83,SE,144,0.0,0.0,64,0.00,,,0.00,Wunderground v.1.15,2013-05-08 06:30:00,
2013-05-08 01:35:00,60.4,48.2,29.83,SE,144,0.0,0.0,64,0.00,,,0.00,Wunderground v.1.15,2013-05-08 06:35:00,
2013-05-08 01:45:00,60.5,47.8,29.83,SE,133,0.0,0.0,63,0.00,,,0.00,Wunderground v.1.15,2013-05-08 06:45:00,
2013-05-08 01:50:00,60.4,48.2,29.83,SE,127,0.0,0.0,64,0.00,,,0.00,Wunderground v.1.15,2013-05-08 06:50:00,
2013-05-08 02:00:00,60.5,47.8,29.83,SSE,167,0.0,0.0,63,0.00,,,0.00,Wunderground v.1.15,2013-05-08 07:00:00,
2013-05-08 02:10:00,60.4,48.2,29.82,SSE,147,0.0,0.0,64,0.00,,,0.00,Wunderground v.1.15,2013-05-08 07:10:00,
2013-05-08 02:15:00,60.2,48.0,29.82,SE,145,0.0,0.0,64,0.00,,,0.00,Wunderground v.1.15,2013-05-08 07:15:00,
2013-05-08 02:25:00,59.9,48.1,29.83,SSE,161,0.0,0.0,65,0.00,,,0.00,Wunderground v.1.15,2013-05-08 07:25:00,
2013-05-08 02:30:00,59.9,48.5,29.83,SSE,161,0.0,0.0,66,0.00,,,0.00,Wunderground v.1.15,2013-05-08 07:30:00,
2013-05-08 02:40:00,59.9,48.5,29.83,SE,143,0.0,0.0,66,0.00,,,0.00,Wunderground v.1.15,2013-05-08 07:40:00,
2013-05-08 02:50:00,60.1,48.7,29.82,SSE,148,0.0,0.0,66,0.00,,,0.00,Wunderground v.1.15,2013-05-08 07:50:00,
2013-05-08 02:55:00,60.1,48.7,29.82,SSE,155,0.0,0.0,66,0.00,,,0.00,Wunderground v.1.15,2013-05-08 07:55:00,
2013-05-08 03:05:00,60.1,48.7,29.82,SSE,167,0.0,0.0,66,0.00,,,0.00,Wunderground v.1.15,2013-05-08 08:05:00,
2013-05-08 03:15:00,59.8,48.8,29.82,SE,143,0.0,0.0,67,0.00,,,0.00,Wunderground v.1.15,2013-05-08 08:15:00,
2013-05-08 03:25:00,59.8,48.8,29.82,SE,145,0.0,0.0,67,0.00,,,0.00,Wunderground v.1.15,2013-05-08 08:25:00,
2013-05-08 03:30:00,59.8,48.8,29.82,SSE,150,0.0,0.0,67,0.00,,,0.00,Wunderground v.1.15,2013-05-08 08:30:00,
2013-05-08 03:40:00,59.6,49.0,29.82,SSE,150,0.0,0.0,68,0.00,,,0.00,Wunderground v.1.15,2013-05-08 08:40:00,
2013-05-08 03:45:00,59.5,48.9,29.82,SSE,168,0.0,0.0,68,0.00,,,0.00,Wunderground v.1.15,2013-05-08 08:45:00,
2013-05-08 03:55:00,59.2,49.0,29.82,South,178,0.0,0.0,69,0.00,,,0.00,Wunderground v.1.15,2013-05-08 08:55:00,
2013-05-08 04:00:00,59.0,48.8,29.82,South,184,0.0,0.0,69,0.00,,,0.00,Wunderground v.1.15,2013-05-08 09:00:00,
2013-05-08 04:10:00,58.7,49.3,29.83,SSW,200,0.0,0.0,71,0.00,,,0.00,Wunderground v.1.15,2013-05-08 09:10:00,
2013-05-08 04:15:00,58.6,49.2,29.83,SSW,198,0.0,0.0,71,0.00,,,0.00,Wunderground v.1.15,2013-05-08 09:15:00,
2013-05-08 04:25:00,58.4,49.4,29.83,SSW,193,0.0,0.0,72,0.00,,,0.00,Wunderground v.1.15,2013-05-08 09:25:00,
2013-05-08 04:35:00,58.3,49.7,29.83,South,171,0.0,0.0,73,0.00,,,0.00,Wunderground v.1.15,2013-05-08 09:35:00,
2013-05-08 04:45:00,58.4,49.8,29.83,SSE,165,0.0,0.0,73,0.00,,,0.00,Wunderground v.1.15,2013-05-08 09:45:00,
2013-05-08 04:50:00,58.6,50.0,29.82,SE,143,0.0,0.0,73,0.00,,,0.00,Wunderground v.1.15,2013-05-08 09:50:00,
2013-05-08 05:00:00,58.6,50.0,29.82,SSE,162,0.0,0.0,73,0.00,,,0.00,Wunderground v.1.15,2013-05-08 10:00:00,
2013-05-08 05:05:00,58.4,50.1,29.82,SSE,148,0.0,0.0,74,0.00,,,0.00,Wunderground v.1.15,2013-05-08 10:05:00,
2013-05-08 05:15:00,58.0,50.1,29.82,SSE,157,0.0,0.0,75,0.00,,,0.00,Wunderground v.1.15,2013-05-08 10:15:00,
2013-05-08 05:25:00,57.3,50.5,29.82,SSW,193,0.0,0.0,78,0.09,,,0.02,Wunderground v.1.15,2013-05-08 10:25:00,
2013-05-08 05:30:00,57.0,50.5,29.82,SSE,162,0.0,0.0,79,0.09,,,0.02,Wunderground v.1.15,2013-05-08 10:30:00,
2013-05-08 05:40:00,56.9,50.8,29.83,South,169,0.0,0.0,80,0.00,,,0.02,Wunderground v.1.15,2013-05-08 10:40:00,
2013-05-08 05:50:00,56.9,51.1,29.82,SE,134,0.0,0.0,81,0.00,,,0.03,Wunderground v.1.15,2013-05-08 10:50:00,
2013-05-08 05:55:00,56.9,51.5,29.82,SE,136,0.0,0.0,82,0.00,,,0.03,Wunderground v.1.15,2013-05-08 10:55:00,
2013-05-08 06:05:00,57.2,51.8,29.82,SE,137,0.0,0.0,82,0.00,,,0.03,Wunderground v.1.15,2013-05-08 11:05:00,
2013-05-08 06:15:00,57.2,51.8,29.82,SE,140,0.0,0.0,82,0.00,,,0.03,Wunderground v.1.15,2013-05-08 11:15:00,
2013-05-08 06:20:00,57.0,51.9,29.82,SSE,157,0.0,0.0,83,0.00,,,0.03,Wunderground v.1.15,2013-05-08 11:20:00,
2013-05-08 06:30:00,57.0,51.9,29.82,SSE,167,0.0,0.0,83,0.00,,,0.03,Wunderground v.1.15,2013-05-08 11:30:00,
2013-05-08 06:40:00,57.3,52.5,29.82,SE,144,0.0,0.0,84,0.00,,,0.03,Wunderground v.1.15,2013-05-08 11:40:00,
2013-05-08 06:45:00,57.5,52.7,29.82,SE,141,0.0,0.0,84,0.00,,,0.03,Wunderground v.1.15,2013-05-08 11:45:00,
2013-05-08 06:55:00,57.6,52.8,29.82,SE,126,0.0,0.0,84,0.00,,,0.03,Wunderground v.1.15,2013-05-08 11:55:00,
2013-05-08 07:00:00,57.6,52.8,29.82,SE,144,0.0,0.0,84,0.00,,,0.03,Wunderground v.1.15,2013-05-08 12:00:00,
2013-05-08 07:10:00,57.8,53.0,29.82,SSE,164,0.0,0.0,84,0.00,,,0.03,Wunderground v.1.15,2013-05-08 12:10:00,
2013-05-08 07:15:00,57.8,53.0,29.82,SSE,148,0.0,0.0,84,0.00,,,0.03,Wunderground v.1.15,2013-05-08 12:15:00,
2013-05-08 07:25:00,58.0,53.5,29.83,South,178,0.0,0.0,85,0.00,,,0.03,Wunderground v.1.15,2013-05-08 12:25:00,
2013-05-08 07:35:00,58.1,53.6,29.83,SE,144,0.0,0.0,85,0.00,,,0.03,Wunderground v.1.15,2013-05-08 12:35:00,
2013-05-08 07:40:00,58.1,53.3,29.83,SE,141,0.0,0.0,84,0.00,,,0.03,Wunderground v.1.15,2013-05-08 12:40:00,
2013-05-08 07:50:00,58.1,53.6,29.84,SE,144,0.0,0.0,85,0.00,,,0.03,Wunderground v.1.15,2013-05-08 12:50:00,
2013-05-08 08:00:00,58.3,53.8,29.84,SE,145,0.0,0.0,85,0.00,,,0.03,Wunderground v.1.15,2013-05-08 13:00:00,
2013-05-08 08:05:00,58.3,53.8,29.84,SE,145,0.0,0.0,85,0.00,,,0.03,Wunderground v.1.15,2013-05-08 13:05:00,
2013-05-08 08:15:00,58.4,53.9,29.84,SE,145,0.0,0.0,85,0.00,,,0.03,Wunderground v.1.15,2013-05-08 13:15:00,
2013-05-08 08:25:00,58.6,54.1,29.84,SSE,148,0.0,0.0,85,0.00,,,0.03,Wunderground v.1.15,2013-05-08 13:25:00,
2013-05-08 08:30:00,58.7,54.2,29.84,SE,145,0.0,0.0,85,0.00,,,0.03,Wunderground v.1.15,2013-05-08 13:30:00,
2013-05-08 08:40:00,58.9,54.1,29.84,SSE,150,0.0,0.0,84,0.00,,,0.03,Wunderground v.1.15,2013-05-08 13:40:00,
2013-05-08 08:45:00,59.2,54.7,29.84,SSE,161,0.0,0.0,85,0.00,,,0.03,Wunderground v.1.15,2013-05-08 13:45:00,
2013-05-08 08:55:00,59.8,55.0,29.84,SSE,152,0.0,0.0,84,0.00,,,0.03,Wunderground v.1.15,2013-05-08 13:55:00,
2013-05-08 09:00:00,59.9,55.1,29.84,SSE,164,0.0,0.0,84,0.00,,,0.03,Wunderground v.1.15,2013-05-08 14:00:00,
2013-05-08 09:10:00,60.7,55.5,29.84,SSE,160,0.0,0.0,83,0.00,,,0.03,Wunderground v.1.15,2013-05-08 14:10:00,
2013-05-08 09:20:00,61.6,56.0,29.84,SSE,152,0.0,0.0,82,0.00,,,0.03,Wunderground v.1.15,2013-05-08 14:20:00,
2013-05-08 09:25:00,62.1,56.2,29.84,SSE,155,0.0,0.0,81,0.00,,,0.03,Wunderground v.1.15,2013-05-08 14:25:00,
2013-05-08 09:35:00,62.7,56.4,29.84,SE,131,0.0,0.0,80,0.00,,,0.03,Wunderground v.1.15,2013-05-08 14:35:00,
2013-05-08 09:45:00,63.2,56.6,29.84,SSE,148,0.0,0.0,79,0.00,,,0.04,Wunderground v.1.15,2013-05-08 14:45:00,
2013-05-08 09:50:00,63.2,56.6,29.84,SSE,158,0.0,0.0,79,0.00,,,0.04,Wunderground v.1.15,2013-05-08 14:50:00,
2013-05-08 10:00:00,63.5,56.9,29.84,South,178,0.0,0.0,79,0.00,,,0.04,Wunderground v.1.15,2013-05-08 15:00:00,
2013-05-08 10:10:00,63.7,56.0,29.83,SSW,193,0.0,0.0,76,0.00,,,0.04,Wunderground v.1.15,2013-05-08 15:10:00,
2013-05-08 10:15:00,63.7,56.0,29.83,SSW,205,0.0,0.0,76,0.00,,,0.04,Wunderground v.1.15,2013-05-08 15:15:00,
2013-05-08 10:25:00,63.9,55.8,29.84,South,184,0.0,0.0,75,0.00,,,0.04,Wunderground v.1.15,2013-05-08 15:25:00,
2013-05-08 10:30:00,64.0,55.9,29.84,South,175,0.0,0.0,75,0.00,,,0.04,Wunderground v.1.15,2013-05-08 15:30:00,
2013-05-08 10:40:00,64.3,56.2,29.84,SE,144,0.0,0.0,75,0.00,,,0.04,Wunderground v.1.15,2013-05-08 15:40:00,
2013-05-08 10:50:00,64.8,56.7,29.84,SE,138,0.0,0.0,75,0.00,,,0.04,Wunderground v.1.15,2013-05-08 15:50:00,
2013-05-08 11:00:00,66.0,57.1,29.84,South,176,0.0,0.0,73,0.00,,,0.04,Wunderground v.1.15,2013-05-08 16:00:00,
2013-05-08 11:05:00,66.1,57.2,29.83,SSW,195,0.0,0.0,73,0.00,,,0.04,Wunderground v.1.15,2013-05-08 16:05:00,
2013-05-08 11:15:00,68.1,57.9,29.83,South,184,0.0,0.0,70,0.00,,,0.04,Wunderground v.1.15,2013-05-08 16:15:00,
2013-05-08 11:20:00,68.8,58.2,29.83,SSW,195,0.0,0.0,69,0.00,,,0.04,Wunderground v.1.15,2013-05-08 16:20:00,
2013-05-08 11:30:00,67.9,57.4,29.83,SSW,202,0.0,0.0,69,0.00,,,0.04,Wunderground v.1.15,2013-05-08 16:30:00,
2013-05-08 11:40:00,67.8,56.4,29.83,SSE,160,0.0,0.0,67,0.00,,,0.04,Wunderground v.1.15,2013-05-08 16:40:00,
2013-05-08 11:50:00,67.9,56.5,29.83,SSW,210,0.0,0.0,67,0.00,,,0.04,Wunderground v.1.15,2013-05-08 16:50:00,
2013-05-08 12:00:00,68.1,56.7,29.83,SSW,195,0.0,0.0,67,0.00,,,0.04,Wunderground v.1.15,2013-05-08 17:00:00,
2013-05-08 12:10:00,67.6,55.8,29.83,SSE,161,0.0,0.0,66,0.00,,,0.04,Wunderground v.1.15,2013-05-08 17:10:00,
2013-05-08 12:15:00,67.8,56.0,29.83,ESE,114,0.0,0.0,66,0.00,,,0.04,Wunderground v.1.15,2013-05-08 17:15:00,
2013-05-08 12:25:00,67.6,56.2,29.83,South,191,0.0,0.0,67,0.00,,,0.04,Wunderground v.1.15,2013-05-08 17:25:00,
2013-05-08 12:30:00,67.9,55.7,29.83,SSE,155,0.0,0.0,65,0.00,,,0.04,Wunderground v.1.15,2013-05-08 17:30:00,
2013-05-08 12:40:00,68.9,56.2,29.82,SSE,157,0.0,0.0,64,0.00,,,0.04,Wunderground v.1.15,2013-05-08 17:40:00,
2013-05-08 12:45:00,69.1,56.0,29.82,SE,136,0.0,0.0,63,0.00,,,0.04,Wunderground v.1.15,2013-05-08 17:45:00,
2013-05-08 12:55:00,69.4,56.3,29.82,SSE,152,0.0,0.0,63,0.00,,,0.04,Wunderground v.1.15,2013-05-08 17:55:00,
2013-05-08 13:05:00,70.1,56.0,29.82,SE,145,0.0,0.0,61,0.00,,,0.04,Wunderground v.1.15,2013-05-08 18:05:00,
2013-05-08 13:15:00,70.8,56.2,29.82,SE,133,0.0,0.0,60,0.00,,,0.04,Wunderground v.1.15,2013-05-08 18:15:00,
2013-05-08 13:25:00,72.0,56.9,29.81,SSE,148,0.0,0.0,59,0.00,,,0.04,Wunderground v.1.15,2013-05-08 18:25:00,
2013-05-08 13:35:00,72.3,56.7,29.81,SSE,155,0.0,0.0,58,0.00,,,0.04,Wunderground v.1.15,2013-05-08 18:35:00,
2013-05-08 13:45:00,72.5,57.8,29.81,SSE,162,0.0,0.0,60,0.00,,,0.04,Wunderground v.1.15,2013-05-08 18:45:00,
2013-05-08 13:55:00,71.8,56.7,29.80,South,179,0.0,0.0,59,0.00,,,0.04,Wunderground v.1.15,2013-05-08 18:55:00,
2013-05-08 14:05:00,72.1,56.5,29.80,South,185,0.0,0.0,58,0.00,,,0.04,Wunderground v.1.15,2013-05-08 19:05:00,
2013-05-08 14:15:00,72.3,56.7,29.80,South,169,4.0,10.0,58,0.00,,,0.04,Wunderground v.1.15,2013-05-08 19:15:00,
2013-05-08 14:25:00,72.0,55.9,29.80,SE,134,6.0,13.0,57,0.00,,,0.04,Wunderground v.1.15,2013-05-08 19:25:00,
2013-05-08 14:35:00,71.5,55.9,29.80,SE,141,6.0,7.0,58,0.00,,,0.04,Wunderground v.1.15,2013-05-08 19:35:00,
2013-05-08 14:40:00,71.3,56.2,29.80,SSE,148,6.0,6.0,59,0.00,,,0.04,Wunderground v.1.15,2013-05-08 19:40:00,
2013-05-08 14:50:00,71.6,56.0,29.80,SSE,168,5.0,5.0,58,0.00,,,0.04,Wunderground v.1.15,2013-05-08 19:50:00,
2013-05-08 15:00:00,71.6,56.5,29.80,SE,140,5.0,5.0,59,0.00,,,0.04,Wunderground v.1.15,2013-05-08 20:00:00,
2013-05-08 15:10:00,72.1,56.5,29.79,SSE,155,5.0,16.0,58,0.00,,,0.04,Wunderground v.1.15,2013-05-08 20:10:00,
2013-05-08 15:20:00,71.8,56.7,29.79,SSE,155,7.0,7.0,59,0.00,,,0.04,Wunderground v.1.15,2013-05-08 20:20:00,
2013-05-08 15:30:00,72.1,57.0,29.79,SSE,155,6.0,6.0,59,0.00,,,0.04,Wunderground v.1.15,2013-05-08 20:30:00,
2013-05-08 15:40:00,72.3,56.2,29.79,SSE,158,7.0,11.0,57,0.00,,,0.04,Wunderground v.1.15,2013-05-08 20:40:00,
2013-05-08 15:50:00,73.0,56.9,29.78,SE,144,6.0,15.0,57,0.00,,,0.04,Wunderground v.1.15,2013-05-08 20:50:00,
2013-05-08 16:00:00,72.8,57.2,29.78,SSE,154,6.0,15.0,58,0.00,,,0.04,Wunderground v.1.15,2013-05-08 21:00:00,
2013-05-08 16:10:00,73.7,57.0,29.77,SE,136,6.0,15.0,56,0.00,,,0.04,Wunderground v.1.15,2013-05-08 21:10:00,
2013-05-08 16:20:00,73.7,56.5,29.76,SE,130,7.0,16.0,55,0.00,,,0.04,Wunderground v.1.15,2013-05-08 21:20:00,
2013-05-08 16:25:00,74.0,56.8,29.76,SSE,154,7.0,16.0,55,0.00,,,0.04,Wunderground v.1.15,2013-05-08 21:25:00,
2013-05-08 16:35:00,74.2,56.0,29.75,ESE,112,7.0,16.0,53,0.00,,,0.04,Wunderground v.1.15,2013-05-08 21:35:00,
2013-05-08 16:45:00,73.9,55.2,29.75,SE,124,7.0,16.0,52,0.00,,,0.04,Wunderground v.1.15,2013-05-08 21:45:00,
2013-05-08 16:55:00,73.7,56.0,29.75,SE,130,5.0,14.0,54,0.00,,,0.04,Wunderground v.1.15,2013-05-08 21:55:00,
2013-05-08 17:05:00,74.4,55.6,29.75,SSE,151,6.0,14.0,52,0.00,,,0.04,Wunderground v.1.15,2013-05-08 22:05:00,
2013-05-08 17:15:00,74.2,56.0,29.75,SSE,152,6.0,14.0,53,0.00,,,0.04,Wunderground v.1.15,2013-05-08 22:15:00,
2013-05-08 17:25:00,73.9,55.7,29.75,SSE,147,6.0,17.0,53,0.00,,,0.04,Wunderground v.1.15,2013-05-08 22:25:00,
2013-05-08 17:35:00,73.7,55.0,29.75,ESE,120,6.0,17.0,52,0.00,,,0.04,Wunderground v.1.15,2013-05-08 22:35:00,
2013-05-08 17:45:00,73.7,55.5,29.75,SSE,154,4.0,7.0,53,0.00,,,0.04,Wunderground v.1.15,2013-05-08 22:45:00,
2013-05-08 17:55:00,73.9,55.2,29.76,SSE,148,7.0,14.0,52,0.00,,,0.04,Wunderground v.1.15,2013-05-08 22:55:00,
2013-05-08 18:05:00,74.0,55.3,29.75,East,99,6.0,14.0,52,0.00,,,0.04,Wunderground v.1.15,2013-05-08 23:05:00,
2013-05-08 18:15:00,73.9,55.2,29.75,SSE,162,6.0,14.0,52,0.00,,,0.04,Wunderground v.1.15,2013-05-08 23:15:00,
2013-05-08 18:20:00,73.9,55.7,29.74,SSE,154,6.0,6.0,53,0.00,,,0.04,Wunderground v.1.15,2013-05-08 23:20:00,
2013-05-08 18:30:00,73.7,56.0,29.74,SSE,160,5.0,15.0,54,0.00,,,0.04,Wunderground v.1.15,2013-05-08 23:30:00,
2013-05-08 18:40:00,73.2,56.1,29.74,SSE,162,5.0,5.0,55,0.00,,,0.04,Wunderground v.1.15,2013-05-08 23:40:00,
2013-05-08 18:50:00,72.7,56.1,29.74,SSE,148,4.0,13.0,56,0.00,,,0.04,Wunderground v.1.15,2013-05-08 23:50:00,
2013-05-08 19:00:00,72.5,56.4,29.74,SE,141,5.0,5.0,57,0.00,,,0.04,Wunderground v.1.15,2013-05-09 00:00:00,
2013-05-08 19:10:00,72.7,56.6,29.73,SSE,154,5.0,13.0,57,0.00,,,0.04,Wunderground v.1.15,2013-05-09 00:10:00,
2013-05-08 19:20:00,72.8,56.2,29.73,ESE,120,5.0,9.0,56,0.00,,,0.04,Wunderground v.1.15,2013-05-09 00:20:00,
2013-05-08 19:30:00,72.7,56.1,29.73,SSE,155,6.0,6.0,56,0.00,,,0.04,Wunderground v.1.15,2013-05-09 00:30:00,
2013-05-08 19:40:00,72.3,56.2,29.73,SE,138,4.0,4.0,57,0.00,,,0.04,Wunderground v.1.15,2013-05-09 00:40:00,
2013-05-08 19:50:00,71.8,56.2,29.74,SE,140,4.0,4.0,58,0.00,,,0.04,Wunderground v.1.15,2013-05-09 00:50:00,
2013-05-08 20:00:00,71.1,56.0,29.74,SSE,157,4.0,11.0,59,0.00,,,0.04,Wunderground v.1.15,2013-05-09 01:00:00,
2013-05-08 20:05:00,70.6,56.0,29.74,SE,145,4.0,11.0,60,0.00,,,0.04,Wunderground v.1.15,2013-05-09 01:05:00,
2013-05-08 20:15:00,69.8,56.2,29.74,SSE,154,4.0,11.0,62,0.00,,,0.04,Wunderground v.1.15,2013-05-09 01:15:00,
2013-05-08 20:25:00,69.1,56.0,29.73,SE,141,4.0,10.0,63,0.00,,,0.04,Wunderground v.1.15,2013-05-09 01:25:00,
2013-05-08 20:35:00,68.6,56.4,29.74,SSE,147,4.0,10.0,65,0.00,,,0.04,Wunderground v.1.15,2013-05-09 01:35:00,
2013-05-08 20:45:00,68.1,55.9,29.74,SE,144,5.0,10.0,65,0.00,,,0.04,Wunderground v.1.15,2013-05-09 01:45:00,
2013-05-08 20:55:00,67.6,56.2,29.74,SE,144,4.0,10.0,67,0.00,,,0.04,Wunderground v.1.15,2013-05-09 01:55:00,
2013-05-08 21:05:00,67.3,56.4,29.74,SSE,148,5.0,10.0,68,0.00,,,0.04,Wunderground v.1.15,2013-05-09 02:05:00,
2013-05-08 21:15:00,66.9,56.0,29.74,ESE,116,5.0,10.0,68,0.00,,,0.04,Wunderground v.1.15,2013-05-09 02:15:00,
2013-05-08 21:25:00,66.6,56.1,29.74,SSE,150,4.0,6.0,69,0.00,,,0.04,Wunderground v.1.15,2013-05-09 02:25:00,
2013-05-08 21:35:00,66.3,56.2,29.75,SSE,148,4.0,6.0,70,0.00,,,0.04,Wunderground v.1.15,2013-05-09 02:35:00,
2013-05-08 21:45:00,66.1,56.0,29.75,ESE,120,3.0,10.0,70,0.00,,,0.04,Wunderground v.1.15,2013-05-09 02:45:00,
2013-05-08 21:55:00,65.8,56.1,29.74,ESE,103,1.0,11.0,71,0.00,,,0.04,Wunderground v.1.15,2013-05-09 02:55:00,
2013-05-08 22:00:00,65.6,55.9,29.74,ESE,104,1.0,11.0,71,0.00,,,0.04,Wunderground v.1.15,2013-05-09 03:00:00,
2013-05-08 22:10:00,65.3,56.0,29.75,ESE,104,0.0,11.0,72,0.00,,,0.04,Wunderground v.1.15,2013-05-09 03:10:00,
2013-05-08 22:20:00,65.2,55.9,29.76,ESE,102,0.0,9.0,72,0.00,,,0.04,Wunderground v.1.15,2013-05-09 03:20:00,
2013-05-08 22:30:00,65.3,56.0,29.76,SE,124,3.0,9.0,72,0.00,,,0.04,Wunderground v.1.15,2013-05-09 03:30:00,
2013-05-08 22:40:00,65.2,55.9,29.74,ESE,123,1.0,9.0,72,0.00,,,0.04,Wunderground v.1.15,2013-05-09 03:40:00,
2013-05-08 22:50:00,65.0,56.1,29.75,East,90,0.0,7.0,73,0.00,,,0.04,Wunderground v.1.15,2013-05-09 03:50:00,
2013-05-08 23:00:00,64.7,55.8,29.75,East,92,0.0,7.0,73,0.00,,,0.04,Wunderground v.1.15,2013-05-09 04:00:00,
2013-05-08 23:05:00,64.7,55.8,29.75,East,92,0.0,7.0,73,0.00,,,0.04,Wunderground v.1.15,2013-05-09 04:05:00,
2013-05-08 23:10:00,64.7,56.2,29.75,East,92,0.0,7.0,74,0.00,,,0.04,Wunderground v.1.15,2013-05-09 04:10:00,
2013-05-08 23:20:00,64.8,56.3,29.76,SE,127,2.0,4.0,74,0.00,,,0.04,Wunderground v.1.15,2013-05-09 04:20:00,
2013-05-08 23:25:00,64.7,56.2,29.76,ESE,112,3.0,4.0,74,0.00,,,0.04,Wunderground v.1.15,2013-05-09 04:25:00,
2013-05-08 23:30:00,64.7,56.2,29.76,ESE,110,4.0,4.0,74,0.00,,,0.04,Wunderground v.1.15,2013-05-09 04:30:00,
2013-05-08 23:40:00,64.7,56.2,29.76,ESE,120,4.0,4.0,74,0.00,,,0.04,Wunderground v.1.15,2013-05-09 04:40:00,
2013-05-08 23:45:00,65.0,56.5,29.76,SSE,152,5.0,6.0,74,0.00,,,0.04,Wunderground v.1.15,2013-05-09 04:45:00,
2013-05-08 23:55:00,65.5,56.2,29.75,SSE,167,6.0,13.0,72,0.00,,,0.04,Wunderground v.1.15,2013-05-09 04:55:00,